Weather History for Columbus AFB, MS

Change the Weather History Date:

Thursday, February 28, 2013

  Actual Average Record
Temperature  
Mean Temperature 40 °F -  
Max Temperature 48 °F 59 °F 78 °F (2011)
Min Temperature 31 °F 40 °F 17 °F (2002)
Degree Days  
Heating Degree Days 25    
Moisture  
Dew Point 28 °F    
Average Humidity 59    
Maximum Humidity 85    
Minimum Humidity 46    
Precipitation  
Precipitation 0.00 in - - ()
Sea Level Pressure  
Sea Level Pressure 30.07 in    
Wind  
Wind Speed 10 mph (NW)    
Max Wind Speed 17 mph    
Max Gust Speed 29 mph    
Visibility 10 miles    
Events      
Averages and records for this station are not official NWS values.
T = Trace of Precipitation, MM = Missing Value Source: NWS Daily Summary

Daily Weather History Graph

Daily Weather History Graph

Search for Another Location

Airport:

Trip Planner

Search our weather history database for the weather conditions in past years. The results will help you decide how hot, cold, wet, or windy it might be!

Date:

Astronomy

Feb. 28, 2013 Rise Set
Actual Time 6:23 AM CST 5:49 PM CST
Civil Twilight 5:58 AM CST 6:14 PM CST
Nautical Twilight 5:29 AM CST 6:43 PM CST
Astronomical Twilight 5:00 AM CST 7:12 PM CST
Moon 9:03 PM CST (2/28) 7:43 AM CST (2/28)
Length of Visible Light 12h 16m
Length of Day
11h 26m
Waning Gibbous, 90% of the Moon is Illuminated
Feb 28
Waning Gibbous
Mar 4
Last Quarter
Mar 11
New
Mar 19
First Quarter
Mar 27
Full

Hourly Weather History & Observations

Time (CST) Temp. Windchill Dew Point Humidity Pressure Visibility Wind Dir Wind Speed Gust Speed Precip Events Conditions
3:58 AM 35.6 °F 28.6 °F 29.5 °F 78% 30.00 in 10.0 mi West 9.2 mph - N/A   Clear
4:58 AM 35.1 °F 27.9 °F 29.3 °F 80% 30.02 in 10.0 mi West 9.2 mph - N/A   Clear
5:58 AM 33.1 °F 26.1 °F 28.6 °F 84% 30.05 in 10.0 mi West 8.1 mph - N/A   Clear
6:58 AM 33.1 °F 26.9 °F 28.8 °F 84% 30.06 in 10.0 mi West 6.9 mph - N/A   Clear
7:58 AM 38.1 °F 30.7 °F 29.8 °F 72% 30.07 in 10.0 mi West 11.5 mph - N/A   Clear
8:58 AM 41.0 °F 33.1 °F 27.7 °F 59% 30.07 in 10.0 mi NW 15.0 mph 23.0 mph N/A   Scattered Clouds
9:13 AM 41.0 °F 32.5 °F 26.6 °F 57% 30.07 in 10.0 mi NW 17.3 mph 28.8 mph N/A   Mostly Cloudy
9:56 AM 41.0 °F 33.5 °F 26.6 °F 57% 30.08 in 10.0 mi NW 13.8 mph - N/A   Overcast
10:55 AM 43.3 °F 35.5 °F 27.5 °F 54% 30.10 in 10.0 mi NNW 17.3 mph - N/A   Overcast
10:58 AM 43.3 °F 36.1 °F 27.5 °F 54% 30.11 in 10.0 mi NW 15.0 mph - N/A   Overcast
11:58 AM 44.4 °F 39.0 °F 27.3 °F 51% 30.09 in 10.0 mi WNW 10.4 mph - N/A   Overcast
12:58 PM 46.8 °F - 28.0 °F 48% 30.07 in 10.0 mi West 12.7 mph 17.3 mph N/A   Mostly Cloudy
1:58 PM 48.2 °F - 28.4 °F 46% 30.07 in 10.0 mi West 10.4 mph 19.6 mph N/A   Overcast
2:08 PM 48.2 °F - 28.4 °F 46% 30.05 in 10.0 mi WNW 12.7 mph - N/A   Mostly Cloudy
2:43 PM 48.2 °F - 28.4 °F 46% 30.05 in 10.0 mi West 10.4 mph - N/A   Overcast
2:58 PM 47.7 °F - 28.4 °F 47% 30.05 in 10.0 mi WNW 9.2 mph - N/A   Overcast
3:03 PM 48.2 °F - 28.4 °F 46% 30.05 in 10.0 mi NNW 12.7 mph - N/A   Overcast
3:38 PM 46.4 °F 40.4 °F 28.4 °F 50% 30.05 in 10.0 mi North 13.8 mph - N/A   Overcast
3:58 PM 46.2 °F 40.8 °F 28.4 °F 50% 30.07 in 10.0 mi NNW 11.5 mph - N/A   Overcast
4:08 PM 46.4 °F 40.7 °F 28.4 °F 50% 30.06 in 10.0 mi North 12.7 mph - N/A   Overcast
4:58 PM 45.0 °F 38.9 °F 28.6 °F 53% 30.09 in 10.0 mi NNW 12.7 mph - N/A   Mostly Cloudy
5:03 PM 44.6 °F 38.4 °F 28.4 °F 53% 30.07 in 10.0 mi NNW 12.7 mph - N/A   Mostly Cloudy
5:08 PM 44.6 °F 39.7 °F 28.4 °F 53% 30.07 in 10.0 mi NNW 9.2 mph - N/A   Mostly Cloudy
5:13 PM 44.6 °F 38.4 °F 28.4 °F 53% 30.07 in 10.0 mi NNW 12.7 mph - N/A   Mostly Cloudy
5:28 PM 44.6 °F 39.7 °F 28.4 °F 53% 30.07 in 10.0 mi NNW 9.2 mph - N/A   Mostly Cloudy
5:58 PM 43.0 °F 37.7 °F 28.0 °F 56% 30.09 in 10.0 mi NNW 9.2 mph - N/A   Overcast
6:13 PM 42.8 °F 37.5 °F 28.4 °F 57% 30.08 in 10.0 mi NNW 9.2 mph - N/A   Overcast
6:18 PM 42.8 °F 37.0 °F 28.4 °F 57% 30.09 in 10.0 mi NNW 10.4 mph - N/A   Overcast
6:58 PM 42.3 °F 36.8 °F 28.0 °F 57% 30.11 in 10.0 mi NNW 9.2 mph - N/A   Overcast
7:58 PM 41.9 °F 38.2 °F 27.3 °F 56% 30.11 in 10.0 mi NNW 5.8 mph - N/A   Overcast
8:58 PM 41.5 °F 37.1 °F 28.0 °F 59% 30.12 in 10.0 mi NW 6.9 mph - N/A   Overcast
9:33 PM 39.2 °F 35.0 °F 26.6 °F 61% 30.11 in 10.0 mi NNW 5.8 mph - N/A   Scattered Clouds
9:58 PM 39.2 °F 37.0 °F 27.7 °F 63% 30.10 in 10.0 mi NW 3.5 mph - N/A   Clear
10:58 PM 32.0 °F - 27.5 °F 83% 30.09 in 10.0 mi NW 1.2 mph - N/A   Clear
11:58 PM 31.5 °F - 27.3 °F 85% 30.09 in 10.0 mi NE 1.2 mph - N/A   Clear